Arad, Romania

1:59 PM EET on December 13, 2017 (GMT +0200)
Arad

Weather History for LRAR - July, 2013

Change the Weather History Date:

Wednesday, July 31, 2013

  Actual Average Record
Temperature  
Mean Temperature 73 °F -  
Max Temperature 84 °F 80 °F 96 °F (2005)
Min Temperature 62 °F 57 °F 55 °F (2000)
Cooling Degree Days 8    
Growing Degree Days 23 (Base 50)    
Moisture  
Dew Point 59 °F    
Average Humidity 61    
Maximum Humidity 100    
Minimum Humidity 26    
Precipitation  
Precipitation 0.00 in - - ()
Sea Level Pressure  
Sea Level Pressure 30.01 in    
Wind  
Wind Speed 6 mph ()    
Max Wind Speed 16 mph    
Max Gust Speed -    
Visibility 9.5 miles    
Events      
Averages and records for this station are not official NWS values.
T = Trace of Precipitation, MM = Missing Value Source: Averaged Metar Reports

Daily Weather History Graph

Daily Weather History Graph

Search for Another Location

Airport or City:

Trip Planner

Search our weather history database for the weather conditions in past years. The results will help you decide how hot, cold, wet, or windy it might be!

Date:

Astronomy

Jul. 31, 2013 Rise Set
Actual Time 6:15 AM EEST 9:06 PM EEST
Civil Twilight 5:40 AM EEST 9:41 PM EEST
Nautical Twilight 4:56 AM EEST 10:25 PM EEST
Astronomical Twilight 4:03 AM EEST 11:17 PM EEST
Moon 1:00 AM EEST (7/31) 4:06 PM EEST (7/31)
Length of Visible Light 16h 00m
Length of Day
14h 50m
Waning Crescent, 34% of the Moon is Illuminated
Jul 31
Waning Crescent
Aug 7
New
Aug 14
First Quarter
Aug 21
Full
Aug 28
Last Quarter

Hourly Weather History & Observations

Time (EEST) Temp. Heat Index Dew Point Humidity Pressure Visibility Wind Dir Wind Speed Gust Speed Precip Events Conditions
12:00 AM 69 °F - 59 °F 63% 29.98 in 12 mi WSW 2.2 mph - -  
12:00 AM 64.4 °F - 62.6 °F 94% 29.98 in 6.2 mi West 6.9 mph - N/A   Unknown
1:00 AM 64.4 °F - 64.4 °F 100% 29.98 in 6.2 mi NNW 4.6 mph - N/A   Unknown
2:00 AM 65 °F - 61 °F 84% 29.99 in 12 mi North 4.5 mph - -  
2:00 AM - - - N/A% 29.98 in 6.2 mi NNW 2.3 mph - N/A   Unknown
3:00 AM 65 °F - 61 °F 83% 29.99 in 12 mi NNW 4.5 mph - -  
3:00 AM - - - N/A% 29.98 in 6.2 mi NW 4.6 mph - N/A   Unknown
4:00 AM 64 °F - 61 °F 85% 29.99 in 12 mi NW 2.2 mph - -  
4:00 AM - - - N/A% 30.01 in 6.2 mi WNW 4.6 mph - N/A   Unknown
5:00 AM 63 °F - 60 °F 87% 30.00 in 12 mi NNW 4.5 mph - -  
5:00 AM - - - N/A% 30.01 in 3.1 mi NW 4.6 mph - N/A   Unknown
6:00 AM 62 °F - 60 °F 90% 30.01 in 12 mi NNW 2.2 mph - -  
6:00 AM 59.0 °F - 59.0 °F 100% 30.01 in - NW 4.6 mph - N/A   Clear
6:30 AM 59.0 °F - 59.0 °F 100% 30.01 in - NW 6.9 mph - N/A   Clear
7:00 AM 62 °F - 59 °F 88% 30.02 in 12 mi NW 2.2 mph - -  
7:00 AM 60.8 °F - 60.8 °F 100% 30.01 in - NW 4.6 mph - N/A   Clear
7:30 AM 62.6 °F - 62.6 °F 100% 30.01 in - NNW 5.8 mph - N/A   Clear
8:00 AM 64 °F - 59 °F 79% 30.02 in 6 mi NNW 4.5 mph - -  
8:00 AM 64.4 °F - 64.4 °F 100% 30.04 in - NW 6.9 mph - N/A   Clear
8:30 AM 66.2 °F - 66.2 °F 100% 30.04 in - NNW 6.9 mph - N/A   Clear
9:00 AM 67 °F - 61 °F 75% 30.03 in 6 mi NNW 4.5 mph - -  
9:00 AM 69.8 °F - 66.2 °F 88% 30.04 in - NNW 10.4 mph - N/A   Clear
9:30 AM 71.6 °F - 62.6 °F 73% 30.04 in - North 13.8 mph - N/A   Clear
10:00 AM 72 °F - 60 °F 57% 30.02 in 6 mi North 6.7 mph - -  
10:00 AM 73.4 °F - 62.6 °F 69% 30.04 in - NNW 16.1 mph - N/A   Clear
10:30 AM 75.2 °F - 62.6 °F 65% 30.04 in - North 13.8 mph - N/A   Clear
11:00 AM 74 °F - 60 °F 53% 30.02 in 12 mi North 6.7 mph - -   Scattered Clouds
11:00 AM 75.2 °F - 62.6 °F 65% 30.04 in - North 16.1 mph - N/A   Clear
11:30 AM 77.0 °F - 60.8 °F 57% 30.04 in 6.2 mi North 12.7 mph - N/A   Partly Cloudy
12:00 PM 77 °F - 58 °F 42% 30.02 in 12 mi North 6.7 mph - -   Scattered Clouds
12:00 PM 77.0 °F - 60.8 °F 57% 30.04 in 6.2 mi North 13.8 mph - N/A   Partly Cloudy
12:30 PM 78.8 °F - 59.0 °F 51% 30.04 in 6.2 mi North 12.7 mph - N/A   Scattered Clouds
1:00 PM 78 °F - 57 °F 38% 30.02 in 12 mi North 8.9 mph - -   Scattered Clouds
1:00 PM 78.8 °F - 60.8 °F 54% 30.04 in 6.2 mi North 15.0 mph - N/A   Scattered Clouds
1:30 PM 80.6 °F 80.8 °F 57.2 °F 45% 30.04 in - North 11.5 mph - N/A   Clear
2:00 PM 80 °F - 57 °F 35% 30.01 in 12 mi North 6.7 mph - -   Partly Cloudy
2:00 PM 80.6 °F 81.1 °F 59.0 °F 48% 30.04 in - NNW 12.7 mph - N/A   Clear
2:30 PM 80.6 °F 81.1 °F 59.0 °F 48% 30.01 in - NNW 11.5 mph - N/A   Clear
3:00 PM 82 °F - 55 °F 29% 30.00 in 12 mi NNW 6.7 mph - -   Partly Cloudy
3:00 PM 80.6 °F 80.8 °F 57.2 °F 45% 30.01 in - North 11.5 mph - N/A   Clear
3:30 PM 80.6 °F 80.8 °F 57.2 °F 45% 30.01 in - North 12.7 mph - N/A   Clear
4:00 PM 82 °F - 55 °F 29% 29.99 in 12 mi NNW 4.5 mph - -   Partly Cloudy
4:00 PM 82.4 °F 82.0 °F 57.2 °F 42% 30.01 in - NNW 11.5 mph - N/A   Clear
4:30 PM 80.6 °F 80.8 °F 57.2 °F 45% 30.01 in - North 11.5 mph - N/A   Clear
5:00 PM 84 °F - 55 °F 26% 29.99 in 12 mi NNW 4.5 mph - -   Partly Cloudy
5:00 PM 82.4 °F 82.5 °F 59.0 °F 45% 30.01 in - North 13.8 mph - N/A   Clear
5:30 PM 82.4 °F 81.7 °F 55.4 °F 39% 29.98 in - North 11.5 mph - N/A   Clear
6:00 PM 81 °F - 56 °F 33% 29.98 in 12 mi North 6.7 mph - -   Partly Cloudy
6:00 PM 82.4 °F 82.0 °F 57.2 °F 42% 29.98 in - NNW 11.5 mph - N/A   Clear
6:30 PM 82.4 °F 81.7 °F 55.4 °F 39% 29.98 in - NNW 9.2 mph - N/A   Clear
7:00 PM 82 °F - 55 °F 29% 29.97 in 12 mi North 6.7 mph - -   Partly Cloudy
7:00 PM 82.4 °F 81.7 °F 55.4 °F 39% 29.98 in - North 10.4 mph - N/A   Clear
7:30 PM 82.4 °F 81.4 °F 53.6 °F 37% 29.98 in - NNW 9.2 mph - N/A   Clear
8:00 PM 82 °F - 53 °F 26% 29.98 in 12 mi NW 4.5 mph - -   Scattered Clouds
8:00 PM 80.6 °F 80.5 °F 55.4 °F 42% 29.98 in - NNW 6.9 mph - N/A   Clear
8:30 PM 78.8 °F - 57.2 °F 47% 29.98 in - North 4.6 mph - N/A   Clear
9:00 PM 80 °F - 54 °F 30% 29.98 in 12 mi NNW 2.2 mph - -   Scattered Clouds
9:00 PM 77.0 °F - 59.0 °F 54% 29.98 in - North 3.5 mph - N/A   Clear
9:30 PM 73.4 °F - 60.8 °F 65% 30.01 in - NE 1.2 mph - N/A   Clear
10:00 PM 72 °F - 59 °F 54% 30.00 in 12 mi NNE 2.2 mph - -  
10:00 PM 69.8 °F - 60.8 °F 73% 30.01 in - Calm Calm - N/A   Clear
11:00 PM 68 °F - 60 °F 69% 30.02 in 12 mi Calm Calm - -  
11:00 PM 68.0 °F - 60.8 °F 78% 30.01 in 6.2 mi Calm Calm - N/A   Unknown